ESTCUBE 1

Last updated on Thu Nov 21 2024 00:03:39 GMT+0000 (Coordinated Universal Time)

1 39161U 13021C 24325.41257539 .00003427 00000+0 48024-3 0 9995 2 39161 97.8102 27.1276 0009997 85.1929 275.0424 14.78104696620156
UTC large
Height (km)
Speed (km/s)
/
Latitude / Longitude
Inclination (degrees)
Orbital Period (minutes)
Azimuth
Elevation
Range (km)
Doppler Factor

Next 0 passes for location: London (51.5072 / 0.1276)

Sorry there are no passes over London.